Time,TemperatureF,DewpointF,PressureIn,WindDirection,WindDirectionDegrees,WindSpeedMPH,WindSpeedGustMPH,Humidity,HourlyPrecipIn,Conditions,Clouds,dailyrainin,SoftwareType,DateUTC
2013-02-06 00:00:00,53.3,48.9,29.95,SSW,199,1.0,2.0,85,0.00,,,0.00,Wunderground v.1.15,2013-02-06 05:00:00,
2013-02-06 00:10:00,53.4,49.0,29.95,SW,236,1.0,1.0,85,0.00,,,0.00,Wunderground v.1.15,2013-02-06 05:10:00,
2013-02-06 00:20:00,53.3,48.9,29.95,SSW,201,1.0,1.0,85,0.00,,,0.00,Wunderground v.1.15,2013-02-06 05:20:00,
2013-02-06 00:30:00,53.1,48.7,29.95,SSW,209,0.0,1.0,85,0.00,,,0.00,Wunderground v.1.15,2013-02-06 05:30:00,
2013-02-06 00:40:00,53.0,48.6,29.95,SW,221,0.0,0.0,85,0.00,,,0.00,Wunderground v.1.15,2013-02-06 05:40:00,
2013-02-06 00:50:00,52.8,48.4,29.95,WSW,237,0.0,1.0,85,0.00,,,0.00,Wunderground v.1.15,2013-02-06 05:50:00,
2013-02-06 01:00:00,52.7,48.3,29.95,SSW,213,0.0,0.0,85,0.00,,,0.00,Wunderground v.1.15,2013-02-06 06:00:00,
2013-02-06 01:10:00,52.5,48.1,29.95,SSW,207,0.0,0.0,85,0.00,,,0.00,Wunderground v.1.15,2013-02-06 06:10:00,
2013-02-06 01:20:00,52.3,47.9,29.96,SW,224,0.0,0.0,85,0.00,,,0.00,Wunderground v.1.15,2013-02-06 06:20:00,
2013-02-06 01:30:00,52.2,47.8,29.96,West,266,0.0,0.0,85,0.00,,,0.00,Wunderground v.1.15,2013-02-06 06:30:00,
2013-02-06 01:40:00,51.9,47.5,29.95,SSW,212,0.0,0.0,85,0.00,,,0.00,Wunderground v.1.15,2013-02-06 06:40:00,
2013-02-06 01:50:00,51.7,47.6,29.96,SSW,211,1.0,1.0,86,0.00,,,0.00,Wunderground v.1.15,2013-02-06 06:50:00,
2013-02-06 02:00:00,51.5,47.5,29.95,SSW,199,0.0,0.0,86,0.00,,,0.00,Wunderground v.1.15,2013-02-06 07:00:00,
2013-02-06 02:10:00,51.2,47.2,29.95,SW,215,0.0,0.0,86,0.00,,,0.00,Wunderground v.1.15,2013-02-06 07:10:00,
2013-02-06 02:20:00,51.0,47.0,29.96,SW,233,0.0,0.0,86,0.00,,,0.00,Wunderground v.1.15,2013-02-06 07:20:00,
2013-02-06 02:30:00,50.7,47.0,29.95,SW,221,0.0,0.0,87,0.00,,,0.00,Wunderground v.1.15,2013-02-06 07:30:00,
2013-02-06 02:40:00,50.5,46.8,29.95,SW,221,0.0,0.0,87,0.00,,,0.00,Wunderground v.1.15,2013-02-06 07:40:00,
2013-02-06 02:50:00,50.3,46.6,29.96,SW,221,0.0,0.0,87,0.00,,,0.00,Wunderground v.1.15,2013-02-06 07:50:00,
2013-02-06 03:00:00,50.2,46.5,29.96,WSW,243,0.0,0.0,87,0.00,,,0.00,Wunderground v.1.15,2013-02-06 08:00:00,
2013-02-06 03:10:00,49.8,46.4,29.95,WSW,243,0.0,0.0,88,0.00,,,0.00,Wunderground v.1.15,2013-02-06 08:10:00,
2013-02-06 03:20:00,49.4,46.0,29.96,WSW,243,0.0,0.0,88,0.00,,,0.00,Wunderground v.1.15,2013-02-06 08:20:00,
2013-02-06 03:30:00,48.6,45.5,29.96,WSW,243,0.0,0.0,89,0.00,,,0.00,Wunderground v.1.15,2013-02-06 08:30:00,
2013-02-06 03:40:00,47.9,45.1,29.96,WSW,243,0.0,0.0,90,0.00,,,0.00,Wunderground v.1.15,2013-02-06 08:40:00,
2013-02-06 03:50:00,47.6,45.1,29.96,WSW,243,0.0,0.0,91,0.00,,,0.00,Wunderground v.1.15,2013-02-06 08:50:00,
2013-02-06 04:00:00,47.4,44.9,29.96,WSW,243,0.0,0.0,91,0.00,,,0.00,Wunderground v.1.15,2013-02-06 09:00:00,
2013-02-06 04:10:00,46.9,44.4,29.97,WSW,243,0.0,0.0,91,0.00,,,0.00,Wunderground v.1.15,2013-02-06 09:10:00,
2013-02-06 04:20:00,46.4,44.2,29.97,WSW,243,0.0,0.0,92,0.00,,,0.00,Wunderground v.1.15,2013-02-06 09:20:00,
2013-02-06 04:30:00,46.0,43.8,29.98,WSW,243,0.0,0.0,92,0.00,,,0.00,Wunderground v.1.15,2013-02-06 09:30:00,
2013-02-06 04:40:00,46.0,44.1,29.98,WSW,243,0.0,0.0,93,0.00,,,0.00,Wunderground v.1.15,2013-02-06 09:40:00,
2013-02-06 04:50:00,46.1,43.9,29.99,WSW,243,0.0,0.0,92,0.00,,,0.00,Wunderground v.1.15,2013-02-06 09:50:00,
2013-02-06 05:00:00,46.0,43.8,29.99,WSW,243,0.0,0.0,92,0.00,,,0.00,Wunderground v.1.15,2013-02-06 10:00:00,
2013-02-06 05:10:00,46.0,43.8,29.99,WSW,243,0.0,0.0,92,0.00,,,0.00,Wunderground v.1.15,2013-02-06 10:10:00,
2013-02-06 05:20:00,46.1,43.9,30.00,WSW,243,0.0,0.0,92,0.00,,,0.00,Wunderground v.1.15,2013-02-06 10:20:00,
2013-02-06 05:30:00,45.9,43.4,30.00,WSW,243,0.0,0.0,91,0.00,,,0.00,Wunderground v.1.15,2013-02-06 10:30:00,
2013-02-06 05:40:00,45.7,43.5,30.00,WSW,244,0.0,0.0,92,0.00,,,0.00,Wunderground v.1.15,2013-02-06 10:40:00,
2013-02-06 05:50:00,45.4,43.2,30.02,WSW,244,0.0,0.0,92,0.00,,,0.00,Wunderground v.1.15,2013-02-06 10:50:00,
2013-02-06 06:00:00,45.3,43.1,30.02,WSW,244,0.0,0.0,92,0.00,,,0.00,Wunderground v.1.15,2013-02-06 11:00:00,
2013-02-06 06:10:00,45.5,43.6,30.02,WSW,244,0.0,0.0,93,0.00,,,0.00,Wunderground v.1.15,2013-02-06 11:10:00,
2013-02-06 06:20:00,46.0,43.8,30.02,West,279,0.0,0.0,92,0.00,,,0.00,Wunderground v.1.15,2013-02-06 11:20:00,
2013-02-06 06:30:00,46.2,44.0,30.03,WSW,240,0.0,0.0,92,0.00,,,0.00,Wunderground v.1.15,2013-02-06 11:30:00,
2013-02-06 06:40:00,46.1,43.6,30.03,WSW,240,0.0,0.0,91,0.00,,,0.00,Wunderground v.1.15,2013-02-06 11:40:00,
2013-02-06 06:50:00,45.7,43.5,30.04,WSW,240,0.0,0.0,92,0.00,,,0.00,Wunderground v.1.15,2013-02-06 11:50:00,
2013-02-06 07:00:00,45.1,42.9,30.04,WSW,240,0.0,0.0,92,0.00,,,0.00,Wunderground v.1.15,2013-02-06 12:00:00,
2013-02-06 07:10:00,44.7,42.5,30.05,WSW,240,0.0,0.0,92,0.00,,,0.00,Wunderground v.1.15,2013-02-06 12:10:00,
2013-02-06 07:20:00,44.6,42.7,30.05,WSW,240,0.0,0.0,93,0.00,,,0.00,Wunderground v.1.15,2013-02-06 12:20:00,
2013-02-06 07:30:00,44.6,42.7,30.06,WSW,240,0.0,0.0,93,0.00,,,0.00,Wunderground v.1.15,2013-02-06 12:30:00,
2013-02-06 07:40:00,45.1,43.2,30.06,WSW,237,0.0,0.0,93,0.00,,,0.00,Wunderground v.1.15,2013-02-06 12:40:00,
2013-02-06 07:50:00,45.4,43.5,30.07,WSW,238,0.0,0.0,93,0.00,,,0.00,Wunderground v.1.15,2013-02-06 12:50:00,
2013-02-06 08:00:00,46.5,44.3,30.08,WSW,238,0.0,0.0,92,0.00,,,0.00,Wunderground v.1.15,2013-02-06 13:00:00,
2013-02-06 08:10:00,47.5,44.7,30.08,WSW,237,0.0,0.0,90,0.00,,,0.00,Wunderground v.1.15,2013-02-06 13:10:00,
2013-02-06 08:20:00,48.6,45.5,30.09,WSW,242,0.0,0.0,89,0.00,,,0.00,Wunderground v.1.15,2013-02-06 13:20:00,
2013-02-06 08:30:00,49.6,45.9,30.09,East,98,0.0,0.0,87,0.00,,,0.00,Wunderground v.1.15,2013-02-06 13:30:00,
2013-02-06 08:40:00,50.6,45.9,30.09,East,100,0.0,0.0,84,0.00,,,0.00,Wunderground v.1.15,2013-02-06 13:40:00,
2013-02-06 08:50:00,51.7,46.4,30.10,ESE,119,0.0,0.0,82,0.00,,,0.00,Wunderground v.1.15,2013-02-06 13:50:00,
2013-02-06 09:00:00,52.6,46.3,30.10,ESE,123,0.0,0.0,79,0.00,,,0.00,Wunderground v.1.15,2013-02-06 14:00:00,
2013-02-06 09:10:00,53.6,46.9,30.10,ESE,123,0.0,0.0,78,0.00,,,0.00,Wunderground v.1.15,2013-02-06 14:10:00,
2013-02-06 09:20:00,54.8,47.0,30.11,West,265,0.0,2.0,75,0.00,,,0.00,Wunderground v.1.15,2013-02-06 14:20:00,
2013-02-06 09:30:00,56.3,46.3,30.11,NW,325,1.0,1.0,69,0.00,,,0.00,Wunderground v.1.15,2013-02-06 14:30:00,
2013-02-06 09:40:00,57.3,45.6,30.11,NW,323,1.0,1.0,65,0.00,,,0.00,Wunderground v.1.15,2013-02-06 14:40:00,
2013-02-06 09:50:00,57.6,47.1,30.11,ENE,66,1.0,2.0,68,0.00,,,0.00,Wunderground v.1.15,2013-02-06 14:50:00,
2013-02-06 10:00:00,57.4,44.9,30.11,NNW,346,2.0,2.0,63,0.00,,,0.00,Wunderground v.1.15,2013-02-06 15:00:00,
2013-02-06 10:10:00,59.1,43.4,30.12,NNW,347,3.0,6.0,56,0.00,,,0.00,Wunderground v.1.15,2013-02-06 15:10:00,
2013-02-06 10:20:00,59.7,42.0,30.12,NW,313,3.0,3.0,52,0.00,,,0.00,Wunderground v.1.15,2013-02-06 15:20:00,
2013-02-06 10:30:00,60.0,41.3,30.12,North,355,5.0,5.0,50,0.00,,,0.00,Wunderground v.1.15,2013-02-06 15:30:00,
2013-02-06 10:40:00,60.1,41.4,30.12,WNW,298,4.0,5.0,50,0.00,,,0.00,Wunderground v.1.15,2013-02-06 15:40:00,
2013-02-06 10:50:00,60.3,38.9,30.12,NNE,26,6.0,8.0,45,0.00,,,0.00,Wunderground v.1.15,2013-02-06 15:50:00,
2013-02-06 11:00:00,60.7,38.6,30.12,NNW,331,7.0,9.0,44,0.00,,,0.00,Wunderground v.1.15,2013-02-06 16:00:00,
2013-02-06 11:10:00,60.4,37.2,30.13,WNW,292,7.0,7.0,42,0.00,,,0.00,Wunderground v.1.15,2013-02-06 16:10:00,
2013-02-06 11:20:00,60.5,38.5,30.13,North,360,6.0,6.0,44,0.00,,,0.00,Wunderground v.1.15,2013-02-06 16:20:00,
2013-02-06 11:30:00,60.8,38.1,30.13,North,11,6.0,7.0,43,0.00,,,0.00,Wunderground v.1.15,2013-02-06 16:30:00,
2013-02-06 11:40:00,60.9,38.2,30.13,North,5,6.0,6.0,43,0.00,,,0.00,Wunderground v.1.15,2013-02-06 16:40:00,
2013-02-06 11:50:00,61.4,39.3,30.13,North,10,7.0,7.0,44,0.00,,,0.00,Wunderground v.1.15,2013-02-06 16:50:00,
2013-02-06 12:00:00,61.6,40.0,30.12,NNE,14,8.0,10.0,45,0.00,,,0.00,Wunderground v.1.15,2013-02-06 17:00:00,
2013-02-06 12:10:00,61.4,39.3,30.12,NNE,17,6.0,7.0,44,0.00,,,0.00,Wunderground v.1.15,2013-02-06 17:10:00,
2013-02-06 12:20:00,61.2,40.2,30.12,North,355,6.0,6.0,46,0.00,,,0.00,Wunderground v.1.15,2013-02-06 17:20:00,
2013-02-06 12:30:00,61.8,39.1,30.12,NNE,17,6.0,8.0,43,0.00,,,0.00,Wunderground v.1.15,2013-02-06 17:30:00,
2013-02-06 12:40:00,60.9,39.4,30.11,NNE,19,8.0,12.0,45,0.00,,,0.00,Wunderground v.1.15,2013-02-06 17:40:00,
2013-02-06 12:50:00,58.9,41.3,30.11,NE,38,9.0,9.0,52,0.00,,,0.00,Wunderground v.1.15,2013-02-06 17:50:00,
2013-02-06 13:00:00,58.4,41.8,30.11,NNE,32,9.0,9.0,54,0.00,,,0.00,Wunderground v.1.15,2013-02-06 18:00:00,
2013-02-06 13:10:00,58.4,40.8,30.10,NE,47,10.0,10.0,52,0.00,,,0.00,Wunderground v.1.15,2013-02-06 18:10:00,
2013-02-06 13:20:00,58.1,42.5,30.10,NE,51,8.0,8.0,56,0.00,,,0.00,Wunderground v.1.15,2013-02-06 18:20:00,
2013-02-06 13:30:00,58.1,44.3,30.10,NNE,32,7.0,9.0,60,0.00,,,0.00,Wunderground v.1.15,2013-02-06 18:30:00,
2013-02-06 13:40:00,59.1,42.9,30.09,NE,53,7.0,7.0,55,0.00,,,0.00,Wunderground v.1.15,2013-02-06 18:40:00,
2013-02-06 13:50:00,58.5,42.4,30.10,NE,53,7.0,8.0,55,0.00,,,0.00,Wunderground v.1.15,2013-02-06 18:50:00,
2013-02-06 14:00:00,58.8,43.1,30.09,ENE,67,8.0,8.0,56,0.00,,,0.00,Wunderground v.1.15,2013-02-06 19:00:00,
2013-02-06 14:10:00,57.5,46.6,30.09,ENE,69,7.0,8.0,67,0.00,,,0.00,Wunderground v.1.15,2013-02-06 19:10:00,
2013-02-06 14:20:00,57.5,46.2,30.09,ENE,62,9.0,10.0,66,0.00,,,0.00,Wunderground v.1.15,2013-02-06 19:20:00,
2013-02-06 14:30:00,57.3,44.8,30.10,NE,54,8.0,8.0,63,0.00,,,0.00,Wunderground v.1.15,2013-02-06 19:30:00,
2013-02-06 14:40:00,57.1,45.8,30.10,ENE,58,8.0,9.0,66,0.00,,,0.00,Wunderground v.1.15,2013-02-06 19:40:00,
2013-02-06 14:50:00,57.4,46.5,30.10,ENE,68,9.0,9.0,67,0.00,,,0.00,Wunderground v.1.15,2013-02-06 19:50:00,
2013-02-06 15:00:00,57.1,46.2,30.10,East,84,8.0,8.0,67,0.00,,,0.00,Wunderground v.1.15,2013-02-06 20:00:00,
2013-02-06 15:10:00,57.4,45.7,30.10,ENE,69,9.0,9.0,65,0.00,,,0.00,Wunderground v.1.15,2013-02-06 20:10:00,
2013-02-06 15:20:00,57.4,45.7,30.10,ENE,70,9.0,10.0,65,0.00,,,0.00,Wunderground v.1.15,2013-02-06 20:20:00,
2013-02-06 15:30:00,57.1,46.2,30.10,ENE,67,10.0,10.0,67,0.00,,,0.00,Wunderground v.1.15,2013-02-06 20:30:00,
2013-02-06 15:40:00,56.9,46.1,30.10,ENE,61,9.0,9.0,67,0.00,,,0.00,Wunderground v.1.15,2013-02-06 20:40:00,
2013-02-06 15:50:00,56.7,45.5,30.11,NE,56,8.0,8.0,66,0.00,,,0.00,Wunderground v.1.15,2013-02-06 20:50:00,
2013-02-06 16:00:00,56.4,44.4,30.11,NE,46,8.0,8.0,64,0.00,,,0.00,Wunderground v.1.15,2013-02-06 21:00:00,
2013-02-06 16:10:00,56.3,46.3,30.11,ENE,61,7.0,7.0,69,0.00,,,0.00,Wunderground v.1.15,2013-02-06 21:10:00,
2013-02-06 16:20:00,56.1,47.2,30.11,East,80,6.0,6.0,72,0.00,,,0.00,Wunderground v.1.15,2013-02-06 21:20:00,
2013-02-06 16:30:00,56.0,47.1,30.11,ENE,74,4.0,4.0,72,0.00,,,0.00,Wunderground v.1.15,2013-02-06 21:30:00,
2013-02-06 16:40:00,56.0,46.7,30.11,ENE,57,5.0,7.0,71,0.00,,,0.00,Wunderground v.1.15,2013-02-06 21:40:00,
2013-02-06 16:50:00,55.6,45.6,30.12,NE,37,6.0,7.0,69,0.00,,,0.00,Wunderground v.1.15,2013-02-06 21:50:00,
2013-02-06 17:00:00,55.1,45.5,30.12,NE,35,6.0,6.0,70,0.00,,,0.00,Wunderground v.1.15,2013-02-06 22:00:00,
2013-02-06 17:10:00,54.8,46.7,30.12,NE,49,4.0,4.0,74,0.00,,,0.00,Wunderground v.1.15,2013-02-06 22:10:00,
2013-02-06 17:20:00,54.3,46.2,30.12,East,82,3.0,3.0,74,0.00,,,0.00,Wunderground v.1.15,2013-02-06 22:20:00,
2013-02-06 17:30:00,53.6,46.9,30.12,ENE,78,3.0,3.0,78,0.00,,,0.00,Wunderground v.1.15,2013-02-06 22:30:00,
2013-02-06 17:40:00,52.8,45.8,30.13,ENE,78,1.0,1.0,77,0.00,,,0.00,Wunderground v.1.15,2013-02-06 22:40:00,
2013-02-06 17:50:00,52.3,45.6,30.13,ENE,78,0.0,0.0,78,0.00,,,0.00,Wunderground v.1.15,2013-02-06 22:50:00,
2013-02-06 18:00:00,51.9,45.3,30.13,ENE,78,0.0,0.0,78,0.00,,,0.00,Wunderground v.1.15,2013-02-06 23:00:00,
2013-02-06 18:10:00,51.5,45.9,30.14,NNE,30,0.0,3.0,81,0.00,,,0.00,Wunderground v.1.15,2013-02-06 23:10:00,
2013-02-06 18:20:00,52.8,47.1,30.15,ENE,60,6.0,6.0,81,0.00,,,0.00,Wunderground v.1.15,2013-02-06 23:20:00,
2013-02-06 18:30:00,52.3,47.0,30.15,NNE,30,4.0,6.0,82,0.00,,,0.00,Wunderground v.1.15,2013-02-06 23:30:00,
2013-02-06 18:40:00,52.8,47.8,30.16,NE,42,8.0,8.0,83,0.00,,,0.00,Wunderground v.1.15,2013-02-06 23:40:00,
2013-02-06 18:50:00,52.6,47.9,30.17,NE,40,10.0,10.0,84,0.00,,,0.00,Wunderground v.1.15,2013-02-06 23:50:00,
2013-02-06 19:00:00,52.2,46.9,30.17,NNE,28,10.0,12.0,82,0.00,,,0.00,Wunderground v.1.15,2013-02-07 00:00:00,
2013-02-06 19:10:00,52.0,46.7,30.17,NNE,24,12.0,12.0,82,0.00,,,0.00,Wunderground v.1.15,2013-02-07 00:10:00,
2013-02-06 19:20:00,51.8,46.5,30.18,NNE,28,13.0,14.0,82,0.00,,,0.00,Wunderground v.1.15,2013-02-07 00:20:00,
2013-02-06 19:30:00,51.6,46.9,30.20,NNE,19,12.0,13.0,84,0.00,,,0.00,Wunderground v.1.15,2013-02-07 00:30:00,
2013-02-06 19:40:00,51.3,46.6,30.20,NNE,24,12.0,12.0,84,0.00,,,0.00,Wunderground v.1.15,2013-02-07 00:40:00,
2013-02-06 19:50:00,51.2,46.5,30.20,NNE,33,12.0,12.0,84,0.00,,,0.00,Wunderground v.1.15,2013-02-07 00:50:00,
2013-02-06 20:00:00,51.1,46.7,30.20,NNE,32,12.0,12.0,85,0.00,,,0.00,Wunderground v.1.15,2013-02-07 01:00:00,
2013-02-06 20:10:00,50.9,46.9,30.20,NNE,19,13.0,13.0,86,0.00,,,0.00,Wunderground v.1.15,2013-02-07 01:10:00,
2013-02-06 20:20:00,50.6,46.9,30.20,NNE,24,13.0,15.0,87,0.00,,,0.00,Wunderground v.1.15,2013-02-07 01:20:00,
2013-02-06 20:30:00,50.4,46.7,30.21,NNE,27,13.0,16.0,87,0.00,,,0.00,Wunderground v.1.15,2013-02-07 01:30:00,
2013-02-06 20:40:00,50.4,46.7,30.21,NNE,33,14.0,14.0,87,0.00,,,0.00,Wunderground v.1.15,2013-02-07 01:40:00,
2013-02-06 20:50:00,50.4,46.7,30.22,NNE,16,15.0,15.0,87,0.00,,,0.00,Wunderground v.1.15,2013-02-07 01:50:00,
2013-02-06 21:00:00,50.2,46.5,30.22,NNE,30,14.0,14.0,87,0.00,,,0.00,Wunderground v.1.15,2013-02-07 02:00:00,
2013-02-06 21:10:00,50.0,46.3,30.22,NNE,26,14.0,14.0,87,0.00,,,0.00,Wunderground v.1.15,2013-02-07 02:10:00,
2013-02-06 21:20:00,49.8,46.1,30.22,NNE,20,14.0,15.0,87,0.00,,,0.00,Wunderground v.1.15,2013-02-07 02:20:00,
2013-02-06 21:30:00,49.9,46.5,30.22,NNE,30,15.0,16.0,88,0.00,,,0.00,Wunderground v.1.15,2013-02-07 02:30:00,
2013-02-06 21:40:00,49.9,46.5,30.22,NNE,22,14.0,15.0,88,0.00,,,0.00,Wunderground v.1.15,2013-02-07 02:40:00,
2013-02-06 21:50:00,49.9,46.8,30.23,NNE,29,15.0,15.0,89,0.00,,,0.00,Wunderground v.1.15,2013-02-07 02:50:00,
2013-02-06 22:00:00,49.9,46.5,30.23,NNE,28,14.0,14.0,88,0.00,,,0.00,Wunderground v.1.15,2013-02-07 03:00:00,
2013-02-06 22:10:00,49.9,46.5,30.23,NNE,20,13.0,13.0,88,0.00,,,0.00,Wunderground v.1.15,2013-02-07 03:10:00,
2013-02-06 22:20:00,50.0,46.6,30.23,NNE,24,13.0,13.0,88,0.00,,,0.00,Wunderground v.1.15,2013-02-07 03:20:00,
2013-02-06 22:30:00,50.0,46.6,30.23,NNE,22,13.0,14.0,88,0.00,,,0.00,Wunderground v.1.15,2013-02-07 03:30:00,
2013-02-06 22:40:00,50.0,46.6,30.23,NNE,19,13.0,13.0,88,0.00,,,0.00,Wunderground v.1.15,2013-02-07 03:40:00,
2013-02-06 22:50:00,50.0,46.6,30.23,NE,40,13.0,13.0,88,0.00,,,0.00,Wunderground v.1.15,2013-02-07 03:50:00,
2013-02-06 23:00:00,50.0,46.9,30.23,NE,36,12.0,12.0,89,0.00,,,0.00,Wunderground v.1.15,2013-02-07 04:00:00,
2013-02-06 23:10:00,50.2,47.1,30.23,NNE,27,14.0,16.0,89,0.00,,,0.00,Wunderground v.1.15,2013-02-07 04:10:00,
2013-02-06 23:20:00,50.3,46.9,30.22,NNE,27,13.0,13.0,88,0.00,,,0.00,Wunderground v.1.15,2013-02-07 04:20:00,
2013-02-06 23:30:00,50.3,46.9,30.22,NNE,17,14.0,14.0,88,0.00,,,0.00,Wunderground v.1.15,2013-02-07 04:30:00,
2013-02-06 23:40:00,50.1,46.7,30.23,NNE,24,12.0,12.0,88,0.00,,,0.00,Wunderground v.1.15,2013-02-07 04:40:00,
2013-02-06 23:50:00,50.2,46.8,30.23,NNE,22,12.0,13.0,88,0.00,,,0.00,Wunderground v.1.15,2013-02-07 04:50:00,